Regional Weather Roundup
Issued by NWS Albany, NY

Home | Current Version | Previous Version | Text Only | Print | Product List | Glossary On
Versions: 1 2 3 4 5 6 7 8 9 10 11 12 13 14 15 16 17 18 19 20 21 22 23 24 25 26
000
ASUS41 KALY 180710
RWRALY

NEW YORK STATE HOURLY WEATHER ROUNDUP
NATIONAL WEATHER SERVICE ALBANY NY
200 AM EST SUN FEB 18 2018

NOTE: "FAIR" INDICATES FEW OR NO CLOUDS BELOW 12,000 FEET WITH NO
SIGNIFICANT WEATHER AND/OR NO OBSTRUCTIONS TO VISIBILITY.

NYZ032-033-038>043-046>054-057>066-NYZ062>081-082-084-180800-
EAST


CITY           SKY/WX    TMP DP  RH WIND       PRES   REMARKS
ALBANY         LGT SNOW  30  27  88 VRB3      29.95F FOG
GLENS FALLS    LGT SNOW  28  27  96 CALM      29.94F FOG
POUGHKEEPSIE   LGT SNOW  30  28  92 CALM      29.95F FOG
NEWBURGH       LGT SNOW  30  30 100 CALM      29.96S FOG
MONTGOMERY     CLOUDY    30  29  96 CALM      29.94F FOG
WHITE PLAINS   MOCLDY    32  31  96 NW5       29.93S WCI  27
ISLIP          LGT RAIN  33  33 100 CALM      29.93F FOG
NEW YORK CITY  CLOUDY    34  33  96 CALM      29.96S FOG
CENTRAL PARK   CLOUDY    33  32  96 VRB5      29.98S FOG     WCI  29
$$

NYZ005>009-017-018-044>046-055-056-180800-
CENTRAL


CITY           SKY/WX    TMP DP  RH WIND       PRES   REMARKS
FULTON         LGT SNOW  30  27  88 W12       29.99R FOG     WCI  20
SYRACUSE       LGT SNOW  30  30 100 W12       29.97R FOG     WCI  20
ROME           LGT SNOW  30  29  96 W3        29.96R VSB 3/4
ELMIRA         LGT SNOW  29  27  92 SW5       29.97R FOG     WCI  24
BINGHAMTON     LGT SNOW  26  24  92 SW8       29.89S FOG     WCI  18
MONTICELLO     LGT SNOW  27  26  96 CALM      29.92R FOG
$$

NYZ026>034-041>043-087-180800-
NORTH


CITY           SKY/WX    TMP DP  RH WIND       PRES   REMARKS
WATERTOWN      LGT SNOW  28  28 100 W7        29.97R VSB 3/4 WCI  21
FORT DRUM      NOT AVBL
OGDENSBURG     CLOUDY    30  26  86 MISG      29.96R
MASSENA        CLOUDY    28  20  71 CALM      29.96S
SARANAC LAKE   LGT SNOW  23  23 100 SW5       29.85S FOG     WCI  17
PLATTSBURGH    CLOUDY    30  25  81 CALM      29.94F
$$

NYZ001>004-010>016-019>021-085-180800-
WEST


CITY           SKY/WX    TMP DP  RH WIND       PRES   REMARKS
NIAGARA FALLS  CLOUDY    30  23  75 SW10      30.01R WCI  21
BUFFALO        CLOUDY    29  25  85 SW17G24   30.00R WCI  17
DUNKIRK        CLOUDY    30  26  85 SW10      30.03R WCI  21
JAMESTOWN      LGT SNOW N/A N/A N/A MISG        N/A
WELLSVILLE     MOCLDY    27  23  85 MISG      29.94R
ROCHESTER      MOCLDY    27  26  96 W5        30.00R WCI  22
PENN YAN       LGT SNOW  29  26  89 SW3       29.98R VSB 1
$$

             KEY
       WCI = WIND CHILL INDEX
       VSB = VISIBILITY
       HX  = HEAT INDEX
$$




USA.gov is the U.S. government's official web portal to all federal, state and local government web resources and services.